Location: Campestrin
(46.4667°N, 11.7167°E)
Time: 04:53:52
(UTC+00:00)

Cosmos 2279 Rocket - Pass Details

Date: 18 April 2021
Orbit: 964 x 978 km, 82.9° (Epoch: 16 May)

Event Time Altitude Azimuth Distance (km) Brightness Sun altitude
Exits shadow 19:33:56 - 176° (S) 3,267 6.4 -14.6°
Reaches altitude 10° 19:35:27 10° 174° (S) 2,696 5.9 -14.8°
Maximum altitude 19:41:32 65° 94° (E) 1,056 4.0 -15.6°
Drops below altitude 10° 19:47:40 10° 14° (NNE) 2,715 6.6 -16.5°
Sets 19:50:12 0° 12° (NNE) 3,667 7.4 -16.8°
